Location: Madrid
(40.4000°N, 3.6830°W)
Time: 03:08:43
(UTC+02:00)

ISS - Pass Details

Date: 06 July 2020
Orbit: 417 x 421 km, 51.6° (Epoch: 09 July)

Event Time Altitude Azimuth Distance (km) Brightness Sun altitude
Exits shadow 03:23:50 30° 37° (NE) 775 -1.9 -25.2°
Drops below altitude 10° 03:25:44 10° 48° (NE) 1,496 -0.2 -25.1°
Sets 03:27:51 0° 52° (NE) 2,362 0.9 -25.0°
